Regional Weather Roundup
Issued by NWS

Home | Current Version | Previous Version | Text Only | Print | Product List | Glossary On
Versions: 1 2 3 4 5 6 7 8 9 10 11 12 13 14 15 16 17 18 19 20 21 22 23 24 25 26 27 28 29 30 31 32 33 34 35 36 37 38 39 40 41 42 43 44 45 46 47 48 49 50
000
ASHW40 PHFO 201443
RWRHI

WEATHER ROUNDUP FOR HAWAII
NATIONAL WEATHER SERVICE HONOLULU HI
400 AM HST SAT SEP 20 2014

THIS IS AN AUTOMATED REPORT THAT HAS NOT BEEN QUALITY CONTROLLED.

NOTE..."FAIR" INDICATES FEW OR NO CLOUDS BELOW 12,000 FEET WITH NO
SIGNIFICANT WEATHER AND/OR OBSTRUCTIONS TO VISIBILITY.

* - THESE SITES REPORT LIMITED FIELDS

HIZ001>004-201500-
KAUAI-NIIHAU-

CITY           SKY/WX    TMP DP  RH WIND       PRES   REMARKS
LIHUE APT      CLEAR     73  69  87 W8        29.89F
PORT ALLEN*      N/A     72 N/A N/A N5          N/A
POIPU*           N/A     72 N/A N/A N2          N/A
PRINCEVILLE*   NOT AVBL
KOKOLE POINT*  NOT AVBL
MOLOAA DAIRY*  NOT AVBL
WAIMEA HTS*      N/A     73  64  73 N3          N/A
PUU OPAE*        N/A     66  63  88 CALM        N/A
PUU LUA*       NOT AVBL
MAKAHA RIDGE*  NOT AVBL
$$

HIZ005>011-201500-
OAHU-

CITY           SKY/WX    TMP DP  RH WIND       PRES   REMARKS
HONOLULU       PTCLDY    76  70  82 CALM      29.88F
KALAELOA       PTCLDY    72  70  94 CALM      29.89F
KANEOHE MCB    CLEAR     75  74  96 CALM      29.88F
WHEELER FIELD  FAIR      70  67  91 NE1       29.90F
BELLOWS*         N/A    N/A N/A N/A CALM        N/A
KAHUKU*          N/A    N/A N/A N/A NE1         N/A
WHEELER*       NOT AVBL
WAIANAE HARBOR NOT AVBL
DILLINGHAM*      N/A     73  68  83 S2          N/A
KAHUKU TRN*      N/A     72  70  94 CALM        N/A
KAWAILOA*      NOT AVBL
KII*             N/A     73  70  88 SE6         N/A
MAKUA RANGE*     N/A     73  68  83 SE5         N/A
OAHU FOREST NW   N/A     68  66  94 NE5         N/A
SCHOFIELD BRK*   N/A     66  66 100 MISG        N/A
SCHOFIELD S*   NOT AVBL
WAIANAE VLY*     N/A     70  68  94 N3G9        N/A
KUAOKALA*        N/A     75  68  78 CALM        N/A
HONOULIUULI*   NOT AVBL
MOKUOLOE IS*     N/A    N/A N/A N/A MISG        N/A
PALEHUA*         N/A     81  70  69 CALM        N/A
WAIAWA PHB*    NOT AVBL
$$

HIZ012>013-201500-
MOLOKAI-

CITY           SKY/WX    TMP DP  RH WIND       PRES   REMARKS
MOLOKAI AIRPT  CLEAR     69  69 100 CALM      29.90F
KALAUPAPA      NOT AVBL
MAKAPULAPAI*     N/A     72  66  83 SE3         N/A
MOLOKAI 1*       N/A     64  63  94 E2          N/A
PUU ALII*        N/A     59  58  98 CALM        N/A
$$

HIZ016-201500-
KAHOOLAWE-

CITY           SKY/WX    TMP DP  RH WIND       PRES   REMARKS
KAHOOLAWE*       N/A     72 N/A N/A E9G16       N/A
HAKIOAWA*      NOT AVBL
HONOKANAIA*      N/A     79  72  78 N5G14     29.88F
KANELOA*         N/A     77  72  83 NE12      29.11F
KEALIALALO*    NOT AVBL
LUA MAKIKA*    NOT AVBL
$$

HIZ014>015-201500-
LANAI-

CITY           SKY/WX    TMP DP  RH WIND       PRES   REMARKS
LANAI CITY     FAIR      71  71 100 N7        29.95S
LANAI 1*         N/A     72  72 100 NE7         N/A
$$

HIZ017>028-201500-
MAUI-

CITY           SKY/WX    TMP DP  RH WIND       PRES   REMARKS
KAHULUI        CLEAR     71  66  84 SE6       29.88F
KAPALUA-W MAUI NOT AVBL
HANA AIRPORT   CLOUDY    75  73  94 SE3       29.92R
HANA*            N/A     77 N/A N/A S3          N/A
HALEAKALA SUMM   N/A     46  41  81 SW8         N/A
MAALAEA BAY*   NOT AVBL
HALEAKALA*     NOT AVBL
KAUPO GAP*       N/A     61  48  63 N3G14       N/A
KULA 1*          N/A     58  47  66 SE5         N/A
$$

HIZ023>026-201500-
BIG ISLAND OF HAWAII COAST AND LOWER SLOPES-

CITY           SKY/WX    TMP DP  RH WIND       PRES   REMARKS
KAILUA KONA    PTCLDY    79  71  76 E5        29.86S
HILO           CLOUDY    76  68  76 SW6       29.90S
HONOKAA*       NOT AVBL
KAWAIHAE MWT*    N/A     79 N/A N/A NE6         N/A
KAWAIHAE*        N/A     81 N/A N/A N3          N/A
SOUTH POINT*     N/A     73 N/A N/A NE12        N/A
UPOLU AIRPORT*   N/A    N/A N/A N/A E8G14       N/A
KAMUELA*       SUNNY     63  59  88 E7        30.00R
HAKALAU*         N/A     54  53  95 SW3G9       N/A
KALOKO-HONOKO*   N/A     75  70  83 E3        29.85S
PALI 2*          N/A     66  59  77 N9G16       N/A
KEALAKOMO*       N/A     81  68  65 NE6G12      N/A
KAUPULEHU*       N/A     73  64  73 S5          N/A
KAPAPALA*        N/A     67  65  95 NW2         N/A
LOWER KAHUKU*  NOT AVBL
PUHE CS*       NOT AVBL
PUHO CS*         N/A     75  67  75 E3          N/A
PTA KEAMUKU*     N/A     63  59  88 SE6         N/A
WAIKOLOA*        N/A     72  61  68 E6          N/A
$$

HIZ027>028-201500-
BIG ISLAND OF HAWAII INTERIOR AND SUMMMITS-

CITY           SKY/WX    TMP DP  RH WIND       PRES   REMARKS
BRADSHAW FIELD CLEAR     54  52  93 E3        30.27S
MK VISITOR CEN NOT AVBL
MAUNA KEA*       N/A     36  32  87 W8          N/A  WCI  29
MAUNA LOA*       N/A     43  37  81 MISG        N/A
MAUNA LOA 1*     N/A     43  37  81 MISG        N/A
PTA KIPUKA*      N/A     55  55 100 E3          N/A
PTA RANGE 17*    N/A     59  57  94 E5          N/A
PTA WEST*        N/A     61  57  88 SE9         N/A
NENE CABIN*    NOT AVBL
AHUMOA*          N/A     55  53  93 CALM        N/A
PTA PORTABLE*  NOT AVBL
PUU MALI*      NOT AVBL
$$

HIC003-201500-
NORTHWEST ISLANDS-

CITY           SKY/WX    TMP DP  RH WIND       PRES   REMARKS
MIDWAY ISLAND  PTCLDY    81  73  78 NE5       30.07F
MIDWAY NOS*    NOT AVBL
FRENCH FRIGATE NOT AVBL
$$

PHZ110>124-180-201500-
BUOY REPORTS

STATION/POSITION TIME  TEMP    WIND        PRES    WAVE   SWELL
                       AIR SEA DIR/SP/G            HT/PER HT/DIR
                 (UTC) (F)     (DEG/KT/KT) (MB)    (FT/S) (FT/D)
BUOY 51001       NOT AVBL
BUOY 51101       NOT AVBL
BUOY 51100       1400   79 81  150/  6/  8 1012.5
BUOY 51003       1400   81 83   70/  4/  4 1011.6F   5/10   5
BUOY 51004       1257   80 81   80/ 12/ 14 1011.2S   5/10   5/ 80
BARBERS PT BUOY  NOT AVBL
WAIMEA BAY BUOY  1400      82                N/A     3/ 8   2/340
KAILUA BAY BUOY  1400      82                N/A     4/ 8   2/ 80
LANAI BUOY       NOT AVBL
BARBERS PT 2     1400      83                N/A     3/13   2/180
PAUWELA MAUI     1400      81                N/A     4/ 8   2/ 70
HILO             1400      82                N/A     5/11   2/100
KANEOHE BAY BUOY NOT AVBL
HANALEI KAUAI    NOT AVBL
KAHULUI HARBOR   1400   77 84  330/  3/  4 1011.7S
HONOLULU HARBOR  1400   77        CALM     1012.0F
KILO NALU        NOT AVBL
HILO HARBOR      1400   77     180/  5/  9 1011.7F
MOKUOLOE         1400      86              1012.0F
NAWILIWILI       1400      83                N/A
WHOTS BUOY       NOT AVBL
BUOY 51028       NOT AVBL
$$

......................KEY........................................
  SKY/WX - SKY CONDITIONS/PRESENT WEATHER
  TMP    - TEMPERATURE IN FAHRENHEIT
  DWPT   - DEWPOINT IN FAHRENHEIT
  RH     - RELATIVE HUMIDITY IN PERCENT
  WIND   - DIRECTION AND SPEED /MPH FOR ISLANDS...KTS FOR BUOYS/
  PRES   - MEAN SEA LEVEL PRESSURE IN INCHES OF HG
  VSB    - VISIBILITY IN MILES
  HX     - HEAT INDEX
  WCI    - WIND CHILL INDEX
  VRB    - VARIABLE WIND DIRECTION
  N/A    - NOT AVAILABLE


USA.gov is the U.S. government's official web portal to all federal, state and local government web resources and services.